Retour au catalogue

COSMOS 89

ActifMilitaireLEO
NORAD 1587·PAYLOAD·🇷🇺 Russia

Lancé Sep 18, 1965 depuis Baikonur Cosmodrome

Loading…

Prochains Passages (prochaines 24 heures)

TLE

FraisSource: Space-Track

Époque: Sep 14, 2026, 11:30 UTC

1 01587U 65073D   26257.47964476 -.00000087  00000-0  49322-4 0  9991
2 01587  56.0551 269.1686 0168622  67.7134 294.1551 12.38989588759926

Suivez COSMOS 89 en temps réel avec AllMySat

Download on the App Store